Year,Month,Day,Hour,Minute,Value (Times are PST for windspeed in km/hr)
2020,01,13,00,00,9.50
2020,01,13,00,01,10.10
2020,01,13,00,02,12.60
2020,01,13,00,03,5.10
2020,01,13,00,04,10.50
2020,01,13,00,05,13.10
2020,01,13,00,06,14.90
2020,01,13,00,07,13.90
2020,01,13,00,08,7.70
2020,01,13,00,09,11.60
2020,01,13,00,10,15.40
2020,01,13,00,11,13.70
2020,01,13,00,12,20.50
2020,01,13,00,13,22.10
2020,01,13,00,14,14.80
2020,01,13,00,15,18.30
2020,01,13,00,16,19.40
2020,01,13,00,17,16.10
2020,01,13,00,18,11.30
2020,01,13,00,19,14.90
2020,01,13,00,20,12.60
2020,01,13,00,21,19.20
2020,01,13,00,22,22.90
2020,01,13,00,23,10.10
2020,01,13,00,24,16.70
2020,01,13,00,25,14.30
2020,01,13,00,26,17.20
2020,01,13,00,27,15.50
2020,01,13,00,28,14.00
2020,01,13,00,29,12.30
2020,01,13,00,30,12.90
2020,01,13,00,31,15.50
2020,01,13,00,32,16.60
2020,01,13,00,33,12.50
2020,01,13,00,34,14.80
2020,01,13,00,35,12.50
2020,01,13,00,36,15.40
2020,01,13,00,37,13.20
2020,01,13,00,38,14.10
2020,01,13,00,39,14.40
2020,01,13,00,40,17.50
2020,01,13,00,41,18.00
2020,01,13,00,42,12.40
2020,01,13,00,43,17.70
2020,01,13,00,44,13.20
2020,01,13,00,45,10.90
2020,01,13,00,46,16.90
2020,01,13,00,47,19.00
2020,01,13,00,48,24.00
2020,01,13,00,49,17.70
2020,01,13,00,50,15.70
2020,01,13,00,51,11.60
2020,01,13,00,52,15.80
2020,01,13,00,53,17.20
2020,01,13,00,54,13.50
2020,01,13,00,55,14.40
2020,01,13,00,56,10.70
2020,01,13,00,57,14.50
2020,01,13,00,58,16.30
2020,01,13,00,59,21.40
2020,01,13,01,00,13.20
2020,01,13,01,01,12.90
2020,01,13,01,02,14.10
2020,01,13,01,03,14.10
2020,01,13,01,04,22.40
2020,01,13,01,05,17.60
2020,01,13,01,06,17.20
2020,01,13,01,07,14.00
2020,01,13,01,08,16.50
2020,01,13,01,09,9.40
2020,01,13,01,10,14.70
2020,01,13,01,11,15.00
2020,01,13,01,12,13.70
2020,01,13,01,13,15.80
2020,01,13,01,14,17.00
2020,01,13,01,15,14.30
2020,01,13,01,16,22.10
2020,01,13,01,17,20.90
2020,01,13,01,18,14.80
2020,01,13,01,19,10.70
2020,01,13,01,20,13.50
2020,01,13,01,21,17.30
2020,01,13,01,22,14.80
2020,01,13,01,23,14.70
2020,01,13,01,24,13.60
2020,01,13,01,25,15.90
2020,01,13,01,26,13.20
2020,01,13,01,27,15.30
2020,01,13,01,28,19.70
2020,01,13,01,29,18.60
2020,01,13,01,30,15.00
2020,01,13,01,31,11.40
2020,01,13,01,32,12.00
2020,01,13,01,33,16.90
2020,01,13,01,34,13.50
2020,01,13,01,35,16.70
2020,01,13,01,36,18.10
2020,01,13,01,37,12.50
2020,01,13,01,38,11.00
2020,01,13,01,39,17.20
2020,01,13,01,40,15.50
2020,01,13,01,41,14.00
2020,01,13,01,42,15.00
2020,01,13,01,43,15.20
2020,01,13,01,44,17.50
2020,01,13,01,45,18.40
2020,01,13,01,46,12.40
2020,01,13,01,47,11.40
2020,01,13,01,48,9.30
2020,01,13,01,49,15.20
2020,01,13,01,50,12.00
2020,01,13,01,51,13.70
2020,01,13,01,52,10.60
2020,01,13,01,53,17.20
2020,01,13,01,54,11.90
2020,01,13,01,55,11.60
2020,01,13,01,56,8.40
2020,01,13,01,57,12.90
2020,01,13,01,58,13.20
2020,01,13,01,59,14.50
2020,01,13,02,00,10.40
2020,01,13,02,01,10.90
2020,01,13,02,02,14.50
2020,01,13,02,03,11.70
2020,01,13,02,04,7.00
2020,01,13,02,05,11.60
2020,01,13,02,06,13.20
2020,01,13,02,07,8.90
2020,01,13,02,08,8.90
2020,01,13,02,09,5.30
2020,01,13,02,10,4.50
2020,01,13,02,11,10.80
2020,01,13,02,12,13.30
2020,01,13,02,13,12.50
2020,01,13,02,14,11.20
2020,01,13,02,15,7.60
2020,01,13,02,16,7.80
2020,01,13,02,17,15.80
2020,01,13,02,18,17.20
2020,01,13,02,19,15.30
2020,01,13,02,20,14.80
2020,01,13,02,21,12.90
2020,01,13,02,22,12.00
2020,01,13,02,23,15.40
2020,01,13,02,24,12.00
2020,01,13,02,25,12.60
2020,01,13,02,26,8.20
2020,01,13,02,27,16.10
2020,01,13,02,28,6.80
2020,01,13,02,29,10.00
2020,01,13,02,30,8.90
2020,01,13,02,31,9.20
2020,01,13,02,32,12.90
2020,01,13,02,33,12.50
2020,01,13,02,34,10.50
2020,01,13,02,35,10.60
2020,01,13,02,36,7.90
2020,01,13,02,37,5.90
2020,01,13,02,38,11.20
2020,01,13,02,39,14.10
2020,01,13,02,40,7.50
2020,01,13,02,41,8.30
2020,01,13,02,42,9.10
2020,01,13,02,43,9.30
2020,01,13,02,44,9.70
2020,01,13,02,45,9.00
2020,01,13,02,46,11.30
2020,01,13,02,47,9.80
2020,01,13,02,48,13.70
2020,01,13,02,49,11.80
2020,01,13,02,50,12.10
2020,01,13,02,51,9.50
2020,01,13,02,52,13.20
2020,01,13,02,53,9.30
2020,01,13,02,54,7.20
2020,01,13,02,55,10.40
2020,01,13,02,56,7.30
2020,01,13,02,57,6.20
2020,01,13,02,58,14.70
2020,01,13,02,59,14.50
2020,01,13,03,00,9.80
2020,01,13,03,01,6.00
2020,01,13,03,02,8.70
2020,01,13,03,03,11.50
2020,01,13,03,04,8.30
2020,01,13,03,05,4.60
2020,01,13,03,06,11.70
2020,01,13,03,07,16.30
2020,01,13,03,08,15.50
2020,01,13,03,09,10.20
2020,01,13,03,10,10.90
2020,01,13,03,11,10.20
2020,01,13,03,12,12.80
2020,01,13,03,13,10.40
2020,01,13,03,14,7.90
2020,01,13,03,15,4.10
2020,01,13,03,16,12.10
2020,01,13,03,17,8.40
2020,01,13,03,18,12.20
2020,01,13,03,19,10.30
2020,01,13,03,20,11.40
2020,01,13,03,21,12.80
2020,01,13,03,22,9.90
2020,01,13,03,23,12.00
2020,01,13,03,24,11.90
2020,01,13,03,25,7.40
2020,01,13,03,26,3.70
2020,01,13,03,27,10.50
2020,01,13,03,28,10.30
2020,01,13,03,29,10.90
2020,01,13,03,30,6.00
2020,01,13,03,31,7.50
2020,01,13,03,32,9.40
2020,01,13,03,33,6.90
2020,01,13,03,34,9.50
2020,01,13,03,35,6.90
2020,01,13,03,36,7.40
2020,01,13,03,37,7.90
2020,01,13,03,38,11.00
2020,01,13,03,39,8.10
2020,01,13,03,40,8.60
2020,01,13,03,41,3.90
2020,01,13,03,42,8.80
2020,01,13,03,43,9.90
2020,01,13,03,44,5.10
2020,01,13,03,45,5.50
2020,01,13,03,46,10.50
2020,01,13,03,47,9.70
2020,01,13,03,48,7.10
2020,01,13,03,49,8.70
2020,01,13,03,50,6.50
2020,01,13,03,51,6.00
2020,01,13,03,52,4.30
2020,01,13,03,53,3.20
2020,01,13,03,54,8.20
2020,01,13,03,55,4.70
2020,01,13,03,56,7.20
2020,01,13,03,57,7.30
2020,01,13,03,58,8.70
2020,01,13,03,59,6.10
2020,01,13,04,00,7.90
2020,01,13,04,01,10.80
2020,01,13,04,02,13.30
2020,01,13,04,03,9.00
2020,01,13,04,04,7.10
2020,01,13,04,05,4.30
2020,01,13,04,06,7.60
2020,01,13,04,07,5.20
2020,01,13,04,08,10.90
2020,01,13,04,09,11.00
2020,01,13,04,10,5.40
2020,01,13,04,11,4.60
2020,01,13,04,12,9.40
2020,01,13,04,13,8.80
2020,01,13,04,14,4.40
2020,01,13,04,15,6.10
2020,01,13,04,16,7.90
2020,01,13,04,17,3.90
2020,01,13,04,18,6.10
2020,01,13,04,19,4.10
2020,01,13,04,20,5.30
2020,01,13,04,21,8.80
2020,01,13,04,22,4.40
2020,01,13,04,23,7.10
2020,01,13,04,24,3.60
2020,01,13,04,25,4.80
2020,01,13,04,26,6.80
2020,01,13,04,27,6.10
2020,01,13,04,28,4.70
2020,01,13,04,29,3.40
2020,01,13,04,30,5.50
2020,01,13,04,31,12.20
2020,01,13,04,32,7.40
2020,01,13,04,33,5.10
2020,01,13,04,34,7.20
2020,01,13,04,35,6.20
2020,01,13,04,36,9.30
2020,01,13,04,37,10.30
2020,01,13,04,38,10.20
2020,01,13,04,39,5.60
2020,01,13,04,40,4.50
2020,01,13,04,41,5.50
2020,01,13,04,42,8.40
2020,01,13,04,43,9.10
2020,01,13,04,44,7.90
2020,01,13,04,45,6.00
2020,01,13,04,46,6.20
2020,01,13,04,47,6.10
2020,01,13,04,48,3.30
2020,01,13,04,49,7.80
2020,01,13,04,50,10.40
2020,01,13,04,51,6.80
2020,01,13,04,52,5.50
2020,01,13,04,53,5.80
2020,01,13,04,54,8.60
2020,01,13,04,55,4.60
2020,01,13,04,56,6.40
2020,01,13,04,57,8.50
2020,01,13,04,58,9.10
2020,01,13,04,59,7.70
2020,01,13,05,00,6.50
2020,01,13,05,01,5.70
2020,01,13,05,02,4.10
2020,01,13,05,03,5.90
2020,01,13,05,04,3.40
2020,01,13,05,05,4.10
2020,01,13,05,06,3.70
2020,01,13,05,07,9.20
2020,01,13,05,08,6.30
2020,01,13,05,09,4.70
2020,01,13,05,10,3.00
2020,01,13,05,11,3.40
2020,01,13,05,12,4.90
2020,01,13,05,13,7.90
2020,01,13,05,14,6.10
2020,01,13,05,15,5.30
2020,01,13,05,16,3.60
2020,01,13,05,17,2.10
2020,01,13,05,18,1.60
2020,01,13,05,19,3.70
2020,01,13,05,20,3.90
2020,01,13,05,21,5.60
2020,01,13,05,22,2.30
2020,01,13,05,23,2.80
2020,01,13,05,24,2.40
2020,01,13,05,25,5.10
2020,01,13,05,26,6.70
2020,01,13,05,27,6.00
2020,01,13,05,28,3.90
2020,01,13,05,29,5.90
2020,01,13,05,30,6.70
2020,01,13,05,31,2.20
2020,01,13,05,32,2.80
2020,01,13,05,33,2.90
2020,01,13,05,34,3.80
2020,01,13,05,35,5.20
2020,01,13,05,36,4.20
2020,01,13,05,37,1.40
2020,01,13,05,38,3.90
2020,01,13,05,39,4.10
2020,01,13,05,40,3.40
2020,01,13,05,41,4.50
2020,01,13,05,42,4.50
2020,01,13,05,43,4.90
2020,01,13,05,44,4.10
2020,01,13,05,45,2.50
2020,01,13,05,46,3.80
2020,01,13,05,47,7.20
2020,01,13,05,48,5.80
2020,01,13,05,49,2.80
2020,01,13,05,50,4.60
2020,01,13,05,51,6.00
2020,01,13,05,52,3.40
2020,01,13,05,53,4.60
2020,01,13,05,54,2.20
2020,01,13,05,55,0.30
2020,01,13,05,56,0.90
2020,01,13,05,57,2.50
2020,01,13,05,58,4.30
2020,01,13,05,59,3.10
2020,01,13,06,00,3.80
2020,01,13,06,01,5.00
2020,01,13,06,02,3.20
2020,01,13,06,03,3.20
2020,01,13,06,04,3.20
2020,01,13,06,05,3.20
2020,01,13,06,06,3.20
2020,01,13,06,07,3.20
2020,01,13,06,08,3.20
2020,01,13,06,09,3.20
2020,01,13,06,10,3.20
2020,01,13,06,11,3.20
2020,01,13,09,18,2.70
2020,01,13,09,19,4.50
2020,01,13,09,20,2.90
2020,01,13,09,21,3.30
2020,01,13,09,22,3.60
2020,01,13,09,23,1.80
2020,01,13,09,24,2.80
2020,01,13,09,25,4.50
2020,01,13,09,26,5.60
2020,01,13,09,27,2.80
2020,01,13,09,28,2.40
2020,01,13,09,29,1.20
2020,01,13,09,30,3.30
2020,01,13,09,31,5.70
2020,01,13,09,32,4.90
2020,01,13,09,33,5.40
2020,01,13,09,34,1.70
2020,01,13,09,35,3.20
2020,01,13,09,36,5.30
2020,01,13,09,37,4.90
2020,01,13,09,38,7.20
2020,01,13,09,39,4.40
2020,01,13,09,40,5.60
2020,01,13,09,41,3.60
2020,01,13,09,42,5.40
2020,01,13,09,43,3.80
2020,01,13,09,44,2.80
2020,01,13,09,45,4.20
2020,01,13,09,46,4.20
2020,01,13,09,47,5.60
2020,01,13,09,48,4.80
2020,01,13,09,49,4.00
2020,01,13,09,50,4.90
2020,01,13,09,51,4.70
2020,01,13,09,52,4.90
2020,01,13,09,53,5.80
2020,01,13,09,54,4.80
2020,01,13,09,55,4.20
2020,01,13,09,56,2.60
2020,01,13,09,57,1.40
2020,01,13,09,58,3.40
2020,01,13,09,59,3.80
2020,01,13,10,00,2.80
2020,01,13,10,01,4.00
2020,01,13,10,02,2.70
2020,01,13,10,03,3.40
2020,01,13,10,04,4.90
2020,01,13,10,05,4.40
2020,01,13,10,06,5.60
2020,01,13,10,07,4.80
2020,01,13,10,08,2.60
2020,01,13,10,09,6.40
2020,01,13,10,10,9.70
2020,01,13,10,11,7.40
2020,01,13,10,12,3.40
2020,01,13,10,13,6.90
2020,01,13,10,14,9.30
2020,01,13,10,15,7.70
2020,01,13,10,16,6.10
2020,01,13,10,17,5.70
2020,01,13,10,18,2.70
2020,01,13,10,19,3.30
2020,01,13,10,20,2.90
2020,01,13,10,21,4.00
2020,01,13,10,22,3.80
2020,01,13,10,23,3.60
2020,01,13,10,24,7.70
2020,01,13,10,25,4.80
2020,01,13,10,26,5.10
2020,01,13,10,27,3.50
2020,01,13,10,28,3.40
2020,01,13,10,29,4.30
2020,01,13,10,30,5.20
2020,01,13,10,31,4.80
2020,01,13,10,32,2.00
2020,01,13,10,33,1.80
2020,01,13,10,34,6.40
2020,01,13,10,35,5.90
2020,01,13,10,36,5.70
2020,01,13,10,37,6.70
2020,01,13,10,38,6.70
2020,01,13,10,39,6.30
2020,01,13,10,40,5.20
2020,01,13,10,41,5.70
2020,01,13,10,42,5.80
2020,01,13,10,43,5.60
2020,01,13,10,44,3.60
2020,01,13,10,45,4.10
2020,01,13,10,46,5.80
2020,01,13,10,47,2.00
2020,01,13,10,48,7.30
2020,01,13,10,49,7.50
2020,01,13,10,50,4.00
2020,01,13,10,51,1.80
2020,01,13,10,52,5.30
2020,01,13,10,53,4.00
2020,01,13,10,54,5.50
2020,01,13,10,55,4.40
2020,01,13,10,56,3.90
2020,01,13,10,57,5.70
2020,01,13,10,58,5.90
2020,01,13,10,59,7.20
2020,01,13,11,00,5.70
2020,01,13,11,01,6.00
2020,01,13,11,02,3.80
2020,01,13,11,03,4.40
2020,01,13,11,04,6.80
2020,01,13,11,05,8.70
2020,01,13,11,06,7.70
2020,01,13,11,07,6.50
2020,01,13,11,08,6.10
2020,01,13,11,09,4.90
2020,01,13,11,10,6.20
2020,01,13,11,11,6.80
2020,01,13,11,12,9.10
2020,01,13,11,13,6.90
2020,01,13,11,14,7.00
2020,01,13,11,15,4.90
2020,01,13,11,16,4.40
2020,01,13,11,17,3.20
2020,01,13,11,18,5.10
2020,01,13,11,19,4.20
2020,01,13,11,20,2.90
2020,01,13,11,21,3.10
2020,01,13,11,22,5.10
2020,01,13,11,23,3.70
2020,01,13,11,24,3.70
2020,01,13,11,25,5.40
2020,01,13,11,26,3.70
2020,01,13,11,27,3.40
2020,01,13,11,28,4.70
2020,01,13,11,29,9.20
2020,01,13,11,30,7.40
2020,01,13,11,31,5.30
2020,01,13,11,32,6.00
2020,01,13,11,33,3.80
2020,01,13,11,34,5.60
2020,01,13,11,35,4.00
2020,01,13,11,36,3.10
2020,01,13,11,37,3.10
2020,01,13,11,38,5.70
2020,01,13,11,39,3.90
2020,01,13,11,40,5.10
2020,01,13,11,41,5.10
2020,01,13,11,42,3.60
2020,01,13,11,43,5.10
2020,01,13,11,44,4.40
2020,01,13,11,45,3.20
2020,01,13,11,46,5.50
2020,01,13,11,47,3.70
2020,01,13,11,48,4.00
2020,01,13,11,49,2.90
2020,01,13,11,50,4.30
2020,01,13,11,51,7.20
2020,01,13,11,52,6.40
2020,01,13,11,53,5.30
2020,01,13,11,54,6.60
2020,01,13,11,55,4.70
2020,01,13,11,56,3.40
2020,01,13,11,57,6.10
2020,01,13,11,58,3.30
2020,01,13,11,59,2.10
2020,01,13,12,00,4.50
2020,01,13,12,01,4.90
2020,01,13,12,02,6.60
2020,01,13,12,03,3.80
2020,01,13,12,04,5.70
2020,01,13,12,05,6.90
2020,01,13,12,06,5.60
2020,01,13,12,07,4.70
2020,01,13,12,08,1.60
2020,01,13,12,09,5.40
2020,01,13,12,10,3.70
2020,01,13,12,11,5.00
2020,01,13,12,12,4.60
2020,01,13,12,13,5.80
2020,01,13,12,14,9.00
2020,01,13,12,15,5.60
2020,01,13,12,16,9.70
2020,01,13,12,17,5.90
2020,01,13,12,18,4.30
2020,01,13,12,19,2.60
2020,01,13,12,20,5.50
2020,01,13,12,21,8.20
2020,01,13,12,22,9.10
2020,01,13,12,23,5.10
2020,01,13,12,24,5.60
2020,01,13,12,25,5.10
2020,01,13,12,26,3.00
2020,01,13,12,27,3.20
2020,01,13,12,28,1.20
2020,01,13,12,29,1.60
2020,01,13,12,30,2.90
2020,01,13,12,31,5.70
2020,01,13,12,32,6.50
2020,01,13,12,33,4.70
2020,01,13,12,34,3.50
2020,01,13,12,35,4.10
2020,01,13,12,36,6.00
2020,01,13,12,37,5.10
2020,01,13,12,38,5.70
2020,01,13,12,39,5.60
2020,01,13,12,40,4.00
2020,01,13,12,41,5.80
2020,01,13,12,42,11.00
2020,01,13,12,43,5.90
2020,01,13,12,44,7.10
2020,01,13,12,45,5.50
2020,01,13,12,46,7.90
2020,01,13,12,47,4.70
2020,01,13,12,48,5.10
2020,01,13,12,49,4.40
2020,01,13,12,50,6.30
2020,01,13,12,51,3.90
2020,01,13,12,52,4.30
2020,01,13,12,53,6.70
2020,01,13,12,54,6.50
2020,01,13,12,55,3.80
2020,01,13,12,56,4.70
2020,01,13,12,57,4.10
2020,01,13,12,58,6.10
2020,01,13,12,59,4.40
2020,01,13,13,00,5.30
2020,01,13,13,01,7.00
2020,01,13,13,02,4.90
2020,01,13,13,03,5.70
2020,01,13,13,04,6.10
2020,01,13,13,05,4.00
2020,01,13,13,06,3.20
2020,01,13,13,07,2.90
2020,01,13,13,08,3.20
2020,01,13,13,09,4.50
2020,01,13,13,10,3.40
2020,01,13,13,11,3.50
2020,01,13,13,12,1.00
2020,01,13,13,13,3.50
2020,01,13,13,14,5.40
2020,01,13,13,15,4.40
2020,01,13,13,16,6.20
2020,01,13,13,17,3.30
2020,01,13,13,18,5.90
2020,01,13,13,19,4.40
2020,01,13,13,20,5.10
2020,01,13,13,21,5.20
2020,01,13,13,22,6.70
2020,01,13,13,23,7.00
2020,01,13,13,24,5.20
2020,01,13,13,25,4.90
2020,01,13,13,26,3.30
2020,01,13,13,27,2.20
2020,01,13,13,28,4.00
2020,01,13,13,29,2.90
2020,01,13,13,30,2.40
2020,01,13,13,31,4.80
2020,01,13,13,32,6.50
2020,01,13,13,33,5.20
2020,01,13,13,34,4.10
2020,01,13,13,35,3.60
2020,01,13,13,36,1.70
2020,01,13,13,37,2.50
2020,01,13,13,38,1.70
2020,01,13,13,39,3.80
2020,01,13,13,40,5.60
2020,01,13,13,41,5.30
2020,01,13,13,42,3.90
2020,01,13,13,43,3.70
2020,01,13,13,44,3.30
2020,01,13,13,45,4.80
2020,01,13,13,46,4.80
2020,01,13,13,47,2.50
2020,01,13,13,48,3.60
2020,01,13,13,49,3.80
2020,01,13,13,50,4.00
2020,01,13,13,51,5.00
2020,01,13,13,52,5.70
2020,01,13,13,53,8.00
2020,01,13,13,54,5.20
2020,01,13,13,55,4.70
2020,01,13,13,56,5.10
2020,01,13,13,57,4.30
2020,01,13,13,58,4.30
2020,01,13,13,59,2.10
2020,01,13,14,00,6.80
2020,01,13,14,01,6.00
2020,01,13,14,02,7.50
2020,01,13,14,03,5.30
2020,01,13,14,04,4.70
2020,01,13,14,05,3.40
2020,01,13,14,06,1.40
2020,01,13,14,07,1.40
2020,01,13,14,08,4.30
2020,01,13,14,09,4.70
2020,01,13,14,10,3.80
2020,01,13,14,11,4.00
2020,01,13,14,12,6.20
2020,01,13,14,13,3.60
2020,01,13,14,14,4.40
2020,01,13,14,15,4.50
2020,01,13,14,16,8.20
2020,01,13,14,17,6.70
2020,01,13,14,18,7.50
2020,01,13,14,19,4.50
2020,01,13,14,20,4.40
2020,01,13,14,21,3.50
2020,01,13,14,22,2.60
2020,01,13,14,23,5.50
2020,01,13,14,24,9.30
2020,01,13,14,25,6.70
2020,01,13,14,26,5.70
2020,01,13,14,27,6.20
2020,01,13,14,28,4.80
2020,01,13,14,29,5.20
2020,01,13,14,30,4.40
2020,01,13,14,31,4.30
2020,01,13,14,32,5.90
2020,01,13,14,33,4.20
2020,01,13,14,34,2.60
2020,01,13,14,35,5.70
2020,01,13,14,36,5.40
2020,01,13,14,37,4.30
2020,01,13,14,38,1.70
2020,01,13,14,39,4.80
2020,01,13,14,40,4.40
2020,01,13,14,41,4.50
2020,01,13,14,42,4.70
2020,01,13,14,43,5.50
2020,01,13,14,44,2.90
2020,01,13,14,45,4.30
2020,01,13,14,46,5.90
2020,01,13,14,47,4.60
2020,01,13,14,48,5.20
2020,01,13,14,49,4.60
2020,01,13,14,50,6.10
2020,01,13,14,51,4.00
2020,01,13,14,52,4.80
2020,01,13,14,53,6.00
2020,01,13,14,54,5.90
2020,01,13,14,55,5.60
2020,01,13,14,56,6.10
2020,01,13,14,57,4.40
2020,01,13,14,58,8.20
2020,01,13,14,59,4.30
2020,01,13,15,00,6.30
2020,01,13,15,01,5.30
2020,01,13,15,02,4.40
2020,01,13,15,03,4.70
2020,01,13,15,04,3.50
2020,01,13,15,05,3.30
2020,01,13,15,06,2.80
2020,01,13,15,07,3.90
2020,01,13,15,08,4.90
2020,01,13,15,09,2.20
2020,01,13,15,10,4.50
2020,01,13,15,11,5.30
2020,01,13,15,12,2.80
2020,01,13,15,13,3.00
2020,01,13,15,14,1.10
2020,01,13,15,15,4.10
2020,01,13,15,16,6.20
2020,01,13,15,17,4.50
2020,01,13,15,18,3.20
2020,01,13,15,19,1.80
2020,01,13,15,20,4.80
2020,01,13,15,21,5.20
2020,01,13,15,22,4.90
2020,01,13,15,23,5.90
2020,01,13,15,24,5.50
2020,01,13,15,25,4.70
2020,01,13,15,26,3.90
2020,01,13,15,27,4.20
2020,01,13,15,28,2.90
2020,01,13,15,29,0.90
2020,01,13,15,30,4.50
2020,01,13,15,31,6.10
2020,01,13,15,32,4.00
2020,01,13,15,33,2.90
2020,01,13,15,34,8.60
2020,01,13,15,35,7.10
2020,01,13,15,36,3.20
2020,01,13,15,37,3.70
2020,01,13,15,38,1.90
2020,01,13,15,39,2.70
2020,01,13,15,40,1.70
2020,01,13,15,41,2.40
2020,01,13,15,42,2.10
2020,01,13,15,43,3.10
2020,01,13,15,44,3.20
2020,01,13,15,45,4.90
2020,01,13,15,46,5.40
2020,01,13,15,47,3.80
2020,01,13,15,48,5.70
2020,01,13,15,49,1.60
2020,01,13,15,50,0.80
2020,01,13,15,51,0.60
2020,01,13,15,52,2.90
2020,01,13,15,53,5.70
2020,01,13,15,54,4.50
2020,01,13,15,55,4.30
2020,01,13,15,56,4.70
2020,01,13,15,57,0.50
2020,01,13,15,58,4.20
2020,01,13,15,59,5.30
2020,01,13,16,00,5.60
2020,01,13,16,01,4.10
2020,01,13,16,02,5.50
2020,01,13,16,03,2.80
2020,01,13,16,04,2.80
2020,01,13,16,05,7.60
2020,01,13,16,06,3.80
2020,01,13,16,07,2.10
2020,01,13,16,08,3.70
2020,01,13,16,09,5.30
2020,01,13,16,10,3.50
2020,01,13,16,11,5.20
2020,01,13,16,12,5.00
2020,01,13,16,13,3.30
2020,01,13,16,14,3.80
2020,01,13,16,15,1.70
2020,01,13,16,16,4.10
2020,01,13,16,17,3.40
2020,01,13,16,18,2.70
2020,01,13,16,19,5.10
2020,01,13,16,20,4.10
2020,01,13,16,21,4.30
2020,01,13,16,22,1.50
2020,01,13,16,23,0.90
2020,01,13,16,24,2.90
2020,01,13,16,25,2.20
2020,01,13,16,26,3.20
2020,01,13,16,27,4.50
2020,01,13,16,28,3.90
2020,01,13,16,29,3.00
2020,01,13,16,30,4.50
2020,01,13,16,31,4.40
2020,01,13,16,32,4.10
2020,01,13,16,33,3.80
2020,01,13,16,34,4.20
2020,01,13,16,35,4.20
2020,01,13,16,36,2.60
2020,01,13,16,37,5.10
2020,01,13,16,38,6.00
2020,01,13,16,39,2.70
2020,01,13,16,40,4.30
2020,01,13,16,41,2.00
2020,01,13,16,42,2.80
2020,01,13,16,43,3.70
2020,01,13,16,44,5.50
2020,01,13,16,45,4.70
2020,01,13,16,46,3.70
2020,01,13,16,47,2.90
2020,01,13,16,48,6.40
2020,01,13,16,49,3.10
2020,01,13,16,50,3.80
2020,01,13,16,51,4.00
2020,01,13,16,52,5.40
2020,01,13,16,53,3.70
2020,01,13,16,54,3.40
2020,01,13,16,55,4.50
2020,01,13,16,56,2.00
2020,01,13,16,57,7.20
2020,01,13,16,58,6.30
2020,01,13,16,59,6.10
2020,01,13,17,00,3.00
2020,01,13,17,01,3.50
2020,01,13,17,02,2.50
2020,01,13,17,03,3.80
2020,01,13,17,04,3.40
2020,01,13,17,05,3.20
2020,01,13,17,06,9.50
2020,01,13,17,07,3.30
2020,01,13,17,08,2.60
2020,01,13,17,09,5.60
2020,01,13,17,10,5.90
2020,01,13,17,11,5.60
2020,01,13,17,12,2.30
2020,01,13,17,13,4.20
2020,01,13,17,14,3.80
2020,01,13,17,15,3.50
2020,01,13,17,16,5.30
2020,01,13,17,17,3.90
2020,01,13,17,18,0.60
2020,01,13,17,19,2.70
2020,01,13,17,20,3.50
2020,01,13,17,21,2.20
2020,01,13,17,22,4.30
2020,01,13,17,23,5.90
2020,01,13,17,24,5.40
2020,01,13,17,25,4.40
2020,01,13,17,26,5.70
2020,01,13,17,27,4.10
2020,01,13,17,28,4.90
2020,01,13,17,29,6.40
2020,01,13,17,30,4.90
2020,01,13,17,31,6.80
2020,01,13,17,32,2.50
2020,01,13,17,33,4.00
2020,01,13,17,34,3.90
2020,01,13,17,35,4.80
2020,01,13,17,36,5.30
2020,01,13,17,37,6.40
2020,01,13,17,38,4.30
2020,01,13,17,39,4.10
2020,01,13,17,40,5.80
2020,01,13,17,41,5.50
2020,01,13,17,42,5.90
2020,01,13,17,43,6.60
2020,01,13,17,44,4.70
2020,01,13,17,45,1.80
2020,01,13,17,46,1.70
2020,01,13,17,47,4.50
2020,01,13,17,48,2.50
2020,01,13,17,49,2.10
2020,01,13,17,50,4.50
2020,01,13,17,51,6.60
2020,01,13,17,52,6.50
2020,01,13,17,53,5.50
2020,01,13,17,54,3.60
2020,01,13,17,55,2.80
2020,01,13,17,56,3.90
2020,01,13,17,57,4.80
2020,01,13,17,58,4.60
2020,01,13,17,59,4.70
2020,01,13,18,00,3.70
2020,01,13,18,01,6.70
2020,01,13,18,02,5.00
2020,01,13,18,03,4.00
2020,01,13,18,04,5.20
2020,01,13,18,05,4.70
2020,01,13,18,06,2.60
2020,01,13,18,07,4.80
2020,01,13,18,08,7.40
2020,01,13,18,09,4.20
2020,01,13,18,10,1.50
2020,01,13,18,11,5.60
2020,01,13,18,12,5.70
2020,01,13,18,13,3.40
2020,01,13,18,14,4.00
2020,01,13,18,15,2.50
2020,01,13,18,16,2.60
2020,01,13,18,17,4.20
2020,01,13,18,18,3.20
2020,01,13,18,19,2.90
2020,01,13,18,20,4.50
2020,01,13,18,21,2.40
2020,01,13,18,22,2.20
2020,01,13,18,23,5.90
2020,01,13,18,24,4.00
2020,01,13,18,25,3.90
2020,01,13,18,26,4.60
2020,01,13,18,27,5.30
2020,01,13,18,28,4.80
2020,01,13,18,29,5.60
2020,01,13,18,30,5.60
2020,01,13,18,31,4.50
2020,01,13,18,32,4.50
2020,01,13,18,33,4.90
2020,01,13,18,34,4.40
2020,01,13,18,35,2.50
2020,01,13,18,36,4.00
2020,01,13,18,37,8.40
2020,01,13,18,38,5.30
2020,01,13,18,39,4.40
2020,01,13,18,40,6.40
2020,01,13,18,41,6.70
2020,01,13,18,42,3.50
2020,01,13,18,43,7.30
2020,01,13,18,44,4.20
2020,01,13,18,45,3.20
2020,01,13,18,46,2.70
2020,01,13,18,47,2.00
2020,01,13,18,48,4.20
2020,01,13,18,49,3.90
2020,01,13,18,50,1.90
2020,01,13,18,51,4.50
2020,01,13,18,52,3.20
2020,01,13,18,53,4.00
2020,01,13,18,54,7.00
2020,01,13,18,55,4.90
2020,01,13,18,56,5.30
2020,01,13,18,57,7.20
2020,01,13,18,58,6.90
2020,01,13,18,59,3.70
2020,01,13,19,00,3.80
2020,01,13,19,01,4.20
2020,01,13,19,02,4.40
2020,01,13,19,03,3.90
2020,01,13,19,04,2.70
2020,01,13,19,05,3.70
2020,01,13,19,06,2.70
2020,01,13,19,07,4.60
2020,01,13,19,08,3.90
2020,01,13,19,09,3.30
2020,01,13,19,10,6.00
2020,01,13,19,11,6.20
2020,01,13,19,12,3.80
2020,01,13,19,13,4.90
2020,01,13,19,14,4.00
2020,01,13,19,15,3.00
2020,01,13,19,16,3.70
2020,01,13,19,17,2.50
2020,01,13,19,18,5.40
2020,01,13,19,19,4.00
2020,01,13,19,20,4.00
2020,01,13,19,21,5.00
2020,01,13,19,22,5.50
2020,01,13,19,23,4.10
2020,01,13,19,24,4.20
2020,01,13,19,25,1.90
2020,01,13,19,26,1.30
2020,01,13,19,27,1.80
2020,01,13,19,28,5.10
2020,01,13,19,29,4.50
2020,01,13,19,30,2.70
2020,01,13,19,31,5.60
2020,01,13,19,32,4.50
2020,01,13,19,33,5.20
2020,01,13,19,34,6.50
2020,01,13,19,35,4.30
2020,01,13,19,36,7.00
2020,01,13,19,37,4.10
2020,01,13,19,38,7.10
2020,01,13,19,39,7.50
2020,01,13,19,40,5.90
2020,01,13,19,41,4.20
2020,01,13,19,42,4.80
2020,01,13,19,43,3.50
2020,01,13,19,44,3.70
2020,01,13,19,45,1.60
2020,01,13,19,46,4.10
2020,01,13,19,47,3.70
2020,01,13,19,48,4.60
2020,01,13,19,49,2.70
2020,01,13,19,50,5.00
2020,01,13,19,51,3.20
2020,01,13,19,52,3.20
2020,01,13,19,53,6.40
2020,01,13,19,54,4.00
2020,01,13,19,55,4.50
2020,01,13,19,56,5.40
2020,01,13,19,57,3.70
2020,01,13,19,58,4.90
2020,01,13,19,59,6.30
2020,01,13,20,00,5.00
2020,01,13,20,01,4.80
2020,01,13,20,02,5.20
2020,01,13,20,03,5.40
2020,01,13,20,04,7.70
2020,01,13,20,05,8.30
2020,01,13,20,06,8.70
2020,01,13,20,07,5.10
2020,01,13,20,08,5.70
2020,01,13,20,09,5.90
2020,01,13,20,10,2.60
2020,01,13,20,11,3.30
2020,01,13,20,12,4.80
2020,01,13,20,13,2.10
2020,01,13,20,14,3.60
2020,01,13,20,15,7.40
2020,01,13,20,16,3.80
2020,01,13,20,17,3.70
2020,01,13,20,18,4.60
2020,01,13,20,19,5.80
2020,01,13,20,20,7.10
2020,01,13,20,21,4.20
2020,01,13,20,22,6.20
2020,01,13,20,23,5.80
2020,01,13,20,24,3.70
2020,01,13,20,25,4.10
2020,01,13,20,26,6.60
2020,01,13,20,27,6.00
2020,01,13,20,28,3.90
2020,01,13,20,29,5.60
2020,01,13,20,30,4.00
2020,01,13,20,31,6.90
2020,01,13,20,32,4.20
2020,01,13,20,33,5.40
2020,01,13,20,34,2.30
2020,01,13,20,35,3.50
2020,01,13,20,36,4.80
2020,01,13,20,37,5.90
2020,01,13,20,38,7.40
2020,01,13,20,39,2.90
2020,01,13,20,40,5.50
2020,01,13,20,41,7.20
2020,01,13,20,42,6.60
2020,01,13,20,43,7.60
2020,01,13,20,44,7.70
2020,01,13,20,45,4.50
2020,01,13,20,46,4.50
2020,01,13,20,47,2.60
2020,01,13,20,48,7.00
2020,01,13,20,49,3.70
2020,01,13,20,50,3.10
2020,01,13,20,51,7.90
2020,01,13,20,52,4.70
2020,01,13,20,53,2.90
2020,01,13,20,54,4.00
2020,01,13,20,55,3.00
2020,01,13,20,56,3.80
2020,01,13,20,57,4.00
2020,01,13,20,58,5.00
2020,01,13,20,59,4.10
2020,01,13,21,00,4.10
2020,01,13,21,01,4.60
2020,01,13,21,02,4.70
2020,01,13,21,03,3.80
2020,01,13,21,04,6.30